User: anonymous   Login
Location: Long Geng
(2.6167°N, 114.1333°E)
Time: 23:12:03
(UTC+00:00)
Language:

Aureole 3 - Orbit

View from above orbital plane
View from above orbital plane
View from above satellite
View from above satellite

Ground track
Ground track

The orbit data is extracted from the following two-line orbital elements,

1 12848U 81094A   21204.55493241  .00001252  00000-0  73610-4 0  9998
2 12848  82.4803  70.0276 0588429 326.9236  29.6385 14.26069746  2740
Epoch (UTC): 23 July 2021 13:19:06
Eccentricity: 0.0588429
inclination: 82.4803°
perigee height: 382 km
apogee height: 1227 km
right ascension of ascending node: 70.0276°
argument of perigee: 326.9236°
revolutions per day: 14.26069746
mean anomaly at epoch: 29.6385°
orbit number at epoch: 274

The dashed part of the orbit path shows where the satellite is in the earth's shadow,  

DLR